Location: Praha
(50.0830°N, 14.4670°E)
Time: 18:36:51
(UTC+02:00)

ISS - Pass Details

Date: 16 July 2021
Orbit: 419 x 421 km, 51.6° (Epoch: 02 August)

Event Time Altitude Azimuth Distance (km) Brightness Sun altitude
Rises 00:32:38 0° 271° (W) 2,369 0.2 -18.1°
Reaches altitude 10° 00:34:45 10° 275° (W) 1,504 -0.8 -18.2°
Maximum altitude 00:38:06 65° 358° (N) 468 -3.4 -18.2°
Drops below altitude 10° 00:41:28 10° 81° (E) 1,504 -0.9 -18.3°
Sets 00:43:35 0° 84° (E) 2,368 0.1 -18.3°
